Location: Marsån
(66.4167°N, 22.2833°E)
Time: 10:37:27
(UTC+00:00)

Cosmos 2154 Rocket - Pass Details

Date: 24 February 2024
Orbit: 965 x 997 km, 82.9° (Epoch: 15 April)

Event Time Altitude Azimuth Distance (km) Brightness Sun altitude
Rises 21:25:38 0° 338° (NNW) 3,732 8.2 -31.4°
Reaches altitude 10° 21:28:14 10° 342° (NNW) 2,781 7.3 -31.5°
Enters shadow 21:34:14 58° 49° (NE) 1,158 4.3 -31.7°
